UAL2277 KSAN-KSFO

Flight info

Callsign UAL2277
Flight time 1h 9m
Altitude 38000
Route PADRZ2 IKAYE RIZIN SPLNT STOKD SERFR SERFR4
Aircraft B737/M-SDE2E3FGHIRWXY/LB1

Departure

Time 2026-04-24 03:11
Airport San Diego International Airport (KSAN)

Arrival

Time 2026-04-24 04:21
Airport San Francisco International Airport (KSFO)
Time Latitude Longitude Altitude Speed Heading
2026-04-24 02:36 32.73312 -117.19572 24 ft 0 kts 227°
2026-04-24 02:59 32.73317 -117.19566 12 ft 4 kts 226°
2026-04-24 02:59 32.73330 -117.19551 23 ft 4 kts 223°
2026-04-24 02:59 32.73350 -117.19530 24 ft 4 kts 218°
2026-04-24 02:59 32.73380 -117.19507 25 ft 4 kts 201°
2026-04-24 03:00 32.73396 -117.19501 22 ft 4 kts 175°
2026-04-24 03:00 32.73410 -117.19506 24 ft 1 kts 147°
2026-04-24 03:00 32.73412 -117.19507 24 ft 1 kts 147°
2026-04-24 03:05 32.73400 -117.19498 22 ft 6 kts 147°
2026-04-24 03:05 32.73369 -117.19449 22 ft 9 kts 108°
2026-04-24 03:05 32.73348 -117.19367 21 ft 12 kts 105°
2026-04-24 03:05 32.73322 -117.19253 21 ft 17 kts 105°
2026-04-24 03:06 32.73286 -117.19102 23 ft 24 kts 106°
2026-04-24 03:06 32.73224 -117.18847 23 ft 40 kts 106°
2026-04-24 03:06 32.73143 -117.18508 28 ft 43 kts 106°
2026-04-24 03:06 32.73077 -117.18245 26 ft 8 kts 107°
2026-04-24 03:07 32.73060 -117.18178 25 ft 9 kts 104°
2026-04-24 03:07 32.73056 -117.18142 25 ft 3 kts 88°
2026-04-24 03:07 32.73063 -117.18127 27 ft 1 kts 52°
2026-04-24 03:07 32.73064 -117.18125 27 ft 0 kts 52°
2026-04-24 03:10 32.73073 -117.18116 24 ft 8 kts 33°
2026-04-24 03:10 32.73138 -117.18125 24 ft 10 kts 336°
2026-04-24 03:10 32.73169 -117.18197 25 ft 10 kts 288°
2026-04-24 03:11 32.73258 -117.18556 26 ft 90 kts 285°
2026-04-24 03:11 32.73505 -117.19577 98 ft 158 kts 286°
2026-04-24 03:11 32.73836 -117.20952 734 ft 188 kts 286°
2026-04-24 03:11 32.74447 -117.22508 1136 ft 228 kts 304°
2026-04-24 03:12 32.75433 -117.24174 1602 ft 263 kts 305°
2026-04-24 03:12 32.76475 -117.25931 2959 ft 256 kts 305°
2026-04-24 03:12 32.77505 -117.27677 4166 ft 260 kts 304°
2026-04-24 03:12 32.78536 -117.29435 5238 ft 265 kts 304°
2026-04-24 03:13 32.79593 -117.31239 6407 ft 265 kts 304°
2026-04-24 03:13 32.80679 -117.33018 7465 ft 267 kts 306°
2026-04-24 03:13 32.81821 -117.34784 8468 ft 271 kts 306°
2026-04-24 03:13 32.82984 -117.36567 9497 ft 275 kts 306°
2026-04-24 03:14 32.84162 -117.38375 10423 ft 281 kts 305°
2026-04-24 03:14 32.85405 -117.40295 10764 ft 308 kts 305°
2026-04-24 03:14 32.86762 -117.42397 11167 ft 328 kts 305°
2026-04-24 03:14 32.88167 -117.44573 11979 ft 334 kts 305°
2026-04-24 03:15 32.89584 -117.46769 12923 ft 336 kts 305°
2026-04-24 03:15 32.91012 -117.48987 13827 ft 340 kts 305°
2026-04-24 03:15 32.92461 -117.51241 14614 ft 344 kts 305°
2026-04-24 03:15 32.93918 -117.53509 15457 ft 346 kts 304°
2026-04-24 03:16 32.95382 -117.55790 16311 ft 348 kts 304°
2026-04-24 03:16 32.96854 -117.58086 17141 ft 351 kts 304°
2026-04-24 03:16 32.98343 -117.60409 17954 ft 354 kts 304°
2026-04-24 03:16 32.99845 -117.62756 18704 ft 358 kts 304°
2026-04-24 03:17 33.01359 -117.65121 19448 ft 360 kts 304°
2026-04-24 03:17 33.02880 -117.67498 20185 ft 362 kts 304°
2026-04-24 03:17 33.04402 -117.69878 20873 ft 365 kts 303°
2026-04-24 03:17 33.05948 -117.72293 21554 ft 369 kts 304°
2026-04-24 03:18 33.07726 -117.74541 22210 ft 377 kts 314°
2026-04-24 03:18 33.09750 -117.76570 22889 ft 381 kts 316°
2026-04-24 03:18 33.11817 -117.78578 23530 ft 385 kts 316°
2026-04-24 03:18 33.13898 -117.80623 24058 ft 388 kts 315°
2026-04-24 03:19 33.15969 -117.82704 24606 ft 390 kts 315°
2026-04-24 03:19 33.18047 -117.84817 25165 ft 392 kts 314°
2026-04-24 03:19 33.20110 -117.86964 25700 ft 394 kts 313°
2026-04-24 03:19 33.22100 -117.89237 26187 ft 396 kts 311°
2026-04-24 03:20 33.24052 -117.91577 26681 ft 399 kts 310°
2026-04-24 03:20 33.25975 -117.93916 27173 ft 401 kts 310°
2026-04-24 03:20 33.27962 -117.96333 27669 ft 404 kts 310°
2026-04-24 03:20 33.29916 -117.98700 28130 ft 406 kts 310°
2026-04-24 03:21 33.31914 -118.01108 28585 ft 409 kts 310°
2026-04-24 03:21 33.33928 -118.03528 29038 ft 412 kts 310°
2026-04-24 03:21 33.35962 -118.05967 29468 ft 415 kts 310°
2026-04-24 03:21 33.38003 -118.08412 29897 ft 417 kts 310°
2026-04-24 03:22 33.40060 -118.10876 30280 ft 420 kts 310°
2026-04-24 03:22 33.42122 -118.13346 30770 ft 418 kts 310°
2026-04-24 03:22 33.44167 -118.15795 31382 ft 413 kts 310°
2026-04-24 03:22 33.46188 -118.18217 31967 ft 409 kts 309°
2026-04-24 03:23 33.48200 -118.20630 32461 ft 407 kts 309°
2026-04-24 03:23 33.50202 -118.23036 32898 ft 407 kts 309°
2026-04-24 03:23 33.52195 -118.25435 33359 ft 405 kts 309°
2026-04-24 03:23 33.54176 -118.27819 33846 ft 402 kts 309°
2026-04-24 03:24 33.56146 -118.30191 34290 ft 400 kts 309°
2026-04-24 03:24 33.58109 -118.32561 34524 ft 403 kts 309°
2026-04-24 03:24 33.60086 -118.34948 34810 ft 403 kts 308°
2026-04-24 03:24 33.62057 -118.37326 35223 ft 399 kts 308°
2026-04-24 03:25 33.64003 -118.39673 35719 ft 394 kts 308°
2026-04-24 03:25 33.65929 -118.41998 36097 ft 392 kts 308°
2026-04-24 03:25 33.67849 -118.44321 36360 ft 392 kts 307°
2026-04-24 03:25 33.69747 -118.46621 36624 ft 392 kts 307°
2026-04-24 03:26 33.71670 -118.48951 36968 ft 390 kts 307°
2026-04-24 03:26 33.73576 -118.51260 37300 ft 388 kts 307°
2026-04-24 03:26 33.75481 -118.53572 37491 ft 390 kts 307°
2026-04-24 03:26 33.77375 -118.55874 37707 ft 391 kts 307°
2026-04-24 03:27 33.79284 -118.58192 38001 ft 390 kts 307°
2026-04-24 03:27 33.83133 -118.62875 37986 ft 394 kts 307°
2026-04-24 03:28 33.86968 -118.67537 37970 ft 388 kts 307°
2026-04-24 03:28 33.90723 -118.72110 37988 ft 385 kts 306°
2026-04-24 03:29 33.94477 -118.76695 37994 ft 384 kts 307°
2026-04-24 03:29 33.98228 -118.81282 37989 ft 383 kts 307°
2026-04-24 03:30 34.01978 -118.85873 37984 ft 384 kts 306°
2026-04-24 03:30 34.05706 -118.90444 37998 ft 385 kts 307°
2026-04-24 03:31 34.09471 -118.95069 38033 ft 386 kts 307°
2026-04-24 03:31 34.13255 -118.99720 37997 ft 389 kts 307°
2026-04-24 03:32 34.16467 -119.04849 38006 ft 381 kts 295°
2026-04-24 03:32 34.19208 -119.10342 37969 ft 383 kts 295°
2026-04-24 03:33 34.21975 -119.15855 37975 ft 384 kts 295°
2026-04-24 03:33 34.24786 -119.21368 37998 ft 386 kts 296°
2026-04-24 03:34 34.27618 -119.26893 37980 ft 387 kts 296°
2026-04-24 03:34 34.30438 -119.32397 37964 ft 387 kts 296°
2026-04-24 03:35 34.33269 -119.37925 37967 ft 387 kts 296°
2026-04-24 03:35 34.36092 -119.43464 37991 ft 386 kts 296°
2026-04-24 03:36 34.38916 -119.49005 37965 ft 386 kts 296°
2026-04-24 03:36 34.41960 -119.54405 37973 ft 393 kts 305°
2026-04-24 03:37 34.45787 -119.59140 37989 ft 397 kts 307°
2026-04-24 03:37 34.49682 -119.63877 37960 ft 396 kts 307°
2026-04-24 03:38 34.53568 -119.68619 37999 ft 396 kts 307°
2026-04-24 03:38 34.57453 -119.73387 37995 ft 398 kts 307°
2026-04-24 03:39 34.61340 -119.78187 38002 ft 399 kts 307°
2026-04-24 03:39 34.65227 -119.82991 37988 ft 399 kts 307°
2026-04-24 03:40 34.69087 -119.87772 38013 ft 397 kts 307°
2026-04-24 03:40 34.72994 -119.92554 37980 ft 400 kts 307°
2026-04-24 03:41 34.76877 -119.97376 38000 ft 399 kts 307°
2026-04-24 03:41 34.80739 -120.02208 38031 ft 398 kts 307°
2026-04-24 03:42 34.84607 -120.07032 38022 ft 398 kts 307°
2026-04-24 03:42 34.88482 -120.11860 37990 ft 398 kts 307°
2026-04-24 03:43 34.92331 -120.16668 38017 ft 398 kts 307°
2026-04-24 03:43 34.96199 -120.21500 38033 ft 398 kts 307°
2026-04-24 03:44 35.00078 -120.26356 38017 ft 399 kts 307°
2026-04-24 03:44 35.03957 -120.31215 38025 ft 400 kts 307°
2026-04-24 03:45 35.07815 -120.36060 38040 ft 401 kts 307°
2026-04-24 03:45 35.11845 -120.40825 38029 ft 405 kts 310°
2026-04-24 03:46 35.16022 -120.45451 38030 ft 406 kts 311°
2026-04-24 03:46 35.19499 -120.49308 38030 ft 406 kts 310°
2026-04-24 03:47 35.23672 -120.53977 38059 ft 406 kts 310°
2026-04-24 03:47 35.27846 -120.58673 38051 ft 408 kts 310°
2026-04-24 03:48 35.32027 -120.63389 38039 ft 409 kts 311°
2026-04-24 03:48 35.36192 -120.68090 38030 ft 410 kts 311°
2026-04-24 03:49 35.40386 -120.72832 38056 ft 410 kts 311°
2026-04-24 03:49 35.44578 -120.77578 38040 ft 410 kts 311°
2026-04-24 03:50 35.48794 -120.82297 38053 ft 412 kts 314°
2026-04-24 03:50 35.53352 -120.86578 38053 ft 414 kts 316°
2026-04-24 03:51 35.57968 -120.90803 38086 ft 413 kts 317°
2026-04-24 03:51 35.62566 -120.95045 38055 ft 413 kts 316°
2026-04-24 03:52 35.67110 -120.99265 38039 ft 404 kts 316°
2026-04-24 03:52 35.69314 -121.01310 38043 ft 388 kts 316°
2026-04-24 03:52 35.71435 -121.03280 38014 ft 374 kts 316°
2026-04-24 03:52 35.73470 -121.05174 38050 ft 360 kts 315°
2026-04-24 03:53 35.75434 -121.07009 37980 ft 351 kts 315°
2026-04-24 03:53 35.77405 -121.08863 37635 ft 367 kts 316°
2026-04-24 03:53 35.79493 -121.10837 37102 ft 389 kts 316°
2026-04-24 03:53 35.81692 -121.12914 36611 ft 408 kts 316°
2026-04-24 03:54 35.84000 -121.15087 36040 ft 423 kts 317°
2026-04-24 03:54 35.86354 -121.17288 35461 ft 425 kts 317°
2026-04-24 03:54 35.88716 -121.19494 34910 ft 427 kts 317°
2026-04-24 03:54 35.91087 -121.21711 34387 ft 428 kts 317°
2026-04-24 03:55 35.93433 -121.23909 33824 ft 428 kts 317°
2026-04-24 03:55 35.95809 -121.26140 33191 ft 429 kts 317°
2026-04-24 03:55 35.98182 -121.28373 32588 ft 429 kts 318°
2026-04-24 03:55 36.00554 -121.30607 31997 ft 429 kts 318°
2026-04-24 03:56 36.02926 -121.32843 31425 ft 429 kts 318°
2026-04-24 03:56 36.05316 -121.35098 30861 ft 434 kts 319°
2026-04-24 03:56 36.07755 -121.37344 30322 ft 441 kts 321°
2026-04-24 03:56 36.10307 -121.39431 29717 ft 440 kts 323°
2026-04-24 03:57 36.12921 -121.41436 29087 ft 440 kts 324°
2026-04-24 03:57 36.15534 -121.43406 28481 ft 438 kts 324°
2026-04-24 03:57 36.18081 -121.45332 28069 ft 427 kts 324°
2026-04-24 03:57 36.20552 -121.47217 27976 ft 408 kts 324°
2026-04-24 03:58 36.22913 -121.49036 27874 ft 391 kts 323°
2026-04-24 03:58 36.25190 -121.50802 27446 ft 384 kts 323°
2026-04-24 03:58 36.27438 -121.52563 26921 ft 381 kts 323°
2026-04-24 03:58 36.29673 -121.54317 26447 ft 380 kts 323°
2026-04-24 03:59 36.31911 -121.56074 25946 ft 379 kts 323°
2026-04-24 03:59 36.34135 -121.57821 25472 ft 379 kts 324°
2026-04-24 03:59 36.36367 -121.59571 24903 ft 381 kts 324°
2026-04-24 03:59 36.38611 -121.61332 24376 ft 382 kts 324°
2026-04-24 04:00 36.40852 -121.63092 23854 ft 380 kts 324°
2026-04-24 04:00 36.43081 -121.64842 23279 ft 377 kts 324°
2026-04-24 04:00 36.45287 -121.66575 22672 ft 375 kts 324°
2026-04-24 04:00 36.47488 -121.68306 22070 ft 373 kts 324°
2026-04-24 04:01 36.49672 -121.70025 21492 ft 370 kts 325°
2026-04-24 04:01 36.51843 -121.71737 20906 ft 369 kts 325°
2026-04-24 04:01 36.53998 -121.73439 20343 ft 366 kts 325°
2026-04-24 04:01 36.56148 -121.75139 19800 ft 365 kts 326°
2026-04-24 04:02 36.58281 -121.76827 19246 ft 363 kts 326°
2026-04-24 04:02 36.60408 -121.78512 18715 ft 362 kts 326°
2026-04-24 04:02 36.62526 -121.80189 18205 ft 359 kts 326°
2026-04-24 04:02 36.64593 -121.81827 17705 ft 355 kts 326°
2026-04-24 04:03 36.66653 -121.83463 17315 ft 348 kts 326°
2026-04-24 04:03 36.68676 -121.85069 16920 ft 342 kts 326°
2026-04-24 04:03 36.70664 -121.86649 16538 ft 336 kts 327°
2026-04-24 04:03 36.72622 -121.88202 16174 ft 331 kts 326°
2026-04-24 04:04 36.74618 -121.89590 15790 ft 328 kts 340°
2026-04-24 04:04 36.76810 -121.90294 15428 ft 323 kts 347°
2026-04-24 04:04 36.78990 -121.90866 15058 ft 319 kts 348°
2026-04-24 04:04 36.81151 -121.91428 14697 ft 315 kts 348°
2026-04-24 04:05 36.83292 -121.91997 14345 ft 313 kts 348°
2026-04-24 04:05 36.85411 -121.92572 13972 ft 310 kts 347°
2026-04-24 04:05 36.87514 -121.93152 13591 ft 309 kts 347°
2026-04-24 04:05 36.89605 -121.93734 13198 ft 307 kts 347°
2026-04-24 04:06 36.91683 -121.94314 12804 ft 306 kts 347°
2026-04-24 04:06 36.93751 -121.94893 12413 ft 303 kts 347°
2026-04-24 04:06 36.95800 -121.95497 12048 ft 302 kts 345°
2026-04-24 04:06 36.97804 -121.96239 11675 ft 300 kts 343°
2026-04-24 04:07 36.99793 -121.97029 11304 ft 299 kts 343°
2026-04-24 04:07 37.01764 -121.97820 10935 ft 296 kts 342°
2026-04-24 04:07 37.03724 -121.98603 10580 ft 295 kts 343°
2026-04-24 04:07 37.05677 -121.99377 10222 ft 293 kts 342°
2026-04-24 04:08 37.07613 -122.00140 9866 ft 291 kts 342°
2026-04-24 04:08 37.09527 -122.00891 9472 ft 291 kts 343°
2026-04-24 04:08 37.11478 -122.01656 9079 ft 289 kts 342°
2026-04-24 04:08 37.13365 -122.02396 8698 ft 288 kts 342°
2026-04-24 04:09 37.15269 -122.03143 8320 ft 286 kts 343°
2026-04-24 04:09 37.17163 -122.03884 7948 ft 284 kts 343°
2026-04-24 04:09 37.19045 -122.04621 7572 ft 282 kts 343°
2026-04-24 04:09 37.20905 -122.05349 7273 ft 278 kts 342°
2026-04-24 04:10 37.22739 -122.06068 6976 ft 274 kts 342°
2026-04-24 04:10 37.24546 -122.06777 6683 ft 270 kts 342°
2026-04-24 04:10 37.26314 -122.07470 6383 ft 262 kts 342°
2026-04-24 04:11 37.29704 -122.08803 5755 ft 249 kts 342°
2026-04-24 04:11 37.31340 -122.09448 5442 ft 244 kts 341°
2026-04-24 04:11 37.32943 -122.10079 5146 ft 239 kts 342°
2026-04-24 04:11 37.34515 -122.10699 4893 ft 234 kts 342°
2026-04-24 04:12 37.36045 -122.11302 4646 ft 227 kts 341°
2026-04-24 04:12 37.37529 -122.11887 4401 ft 221 kts 342°
2026-04-24 04:12 37.38989 -122.12407 4209 ft 215 kts 343°
2026-04-24 04:12 37.40430 -122.12896 4024 ft 213 kts 344°
2026-04-24 04:13 37.41823 -122.13369 3853 ft 202 kts 344°
2026-04-24 04:13 37.43131 -122.13813 3678 ft 187 kts 343°
2026-04-24 04:13 37.44344 -122.14227 3491 ft 174 kts 343°
2026-04-24 04:13 37.45468 -122.14611 3341 ft 163 kts 343°
2026-04-24 04:14 37.46549 -122.14981 3269 ft 158 kts 342°
2026-04-24 04:14 37.47593 -122.15339 3094 ft 150 kts 343°
2026-04-24 04:14 37.48563 -122.15671 2903 ft 138 kts 341°
2026-04-24 04:14 37.49449 -122.15973 2721 ft 128 kts 340°
2026-04-24 04:15 37.50319 -122.16274 2590 ft 132 kts 341°
2026-04-24 04:15 37.51202 -122.16579 2570 ft 132 kts 341°
2026-04-24 04:15 37.52095 -122.16886 2607 ft 135 kts 341°
2026-04-24 04:15 37.52952 -122.17317 2594 ft 132 kts 319°
2026-04-24 04:16 37.53611 -122.18078 2599 ft 131 kts 303°
2026-04-24 04:16 37.54039 -122.19061 2611 ft 128 kts 297°
2026-04-24 04:16 37.54471 -122.20043 2612 ft 128 kts 297°
2026-04-24 04:16 37.54903 -122.21034 2601 ft 129 kts 297°
2026-04-24 04:17 37.55331 -122.22024 2606 ft 128 kts 297°
2026-04-24 04:17 37.55755 -122.23012 2608 ft 129 kts 296°
2026-04-24 04:17 37.56180 -122.24007 2614 ft 129 kts 297°
2026-04-24 04:17 37.56609 -122.25009 2618 ft 131 kts 297°
2026-04-24 04:18 37.57036 -122.26014 2613 ft 129 kts 296°
2026-04-24 04:18 37.57461 -122.27016 2444 ft 133 kts 296°
2026-04-24 04:18 37.57886 -122.28042 2104 ft 130 kts 296°
2026-04-24 04:18 37.58296 -122.29033 1753 ft 125 kts 296°
2026-04-24 04:19 37.58702 -122.29989 1363 ft 123 kts 296°
2026-04-24 04:19 37.59108 -122.30946 1021 ft 125 kts 297°
2026-04-24 04:19 37.59509 -122.31894 773 ft 120 kts 296°
2026-04-24 04:19 37.59908 -122.32803 519 ft 116 kts 295°
2026-04-24 04:20 37.60274 -122.33686 392 ft 113 kts 293°
2026-04-24 04:20 37.60641 -122.34566 255 ft 114 kts 294°
2026-04-24 04:20 37.61005 -122.35445 142 ft 112 kts 294°
2026-04-24 04:20 37.61371 -122.36291 27 ft 104 kts 294°
2026-04-24 04:21 37.61653 -122.36991 21 ft 69 kts 297°
2026-04-24 04:21 37.61820 -122.37394 20 ft 45 kts 297°
2026-04-24 04:21 37.61926 -122.37647 19 ft 29 kts 297°
2026-04-24 04:21 37.61984 -122.37852 19 ft 19 kts 263°
2026-04-24 04:22 37.61959 -122.37935 19 ft 10 kts 237°
2026-04-24 04:22 37.61912 -122.38034 19 ft 15 kts 260°
2026-04-24 04:22 37.61865 -122.38115 19 ft 6 kts 202°
2026-04-24 04:22 37.61846 -122.38124 19 ft 0 kts 201°